"2010-10-21 00:00:00",265261,3.536,124.6,3.136,0.157,16.69,106.7305,16.5,17.38,19.02,0,110.6,13.25,17.31,86.6
"2010-10-21 00:00:30",265262,3.363,120.3,1.682,0.083,16.73,106.7241,16.49,17.36,19.07,0,110.6,13.25,17.30,82.3
"2010-10-21 00:01:00",265263,3.582,124,1.447,0.085,16.8,106.7173,16.47,17.38,19.06,0,110.6,13.25,17.28,86.0
"2010-10-21 00:01:30",265264,3.338,125.8,2.865,0.071,16.8,106.7172,16.47,17.35,19,0,110.6,13.25,17.28,87.8
"2010-10-21 00:02:00",265265,3.28,125.6,2.763,0.061,16.85,106.7179,16.47,17.35,19.02,0,110.6,13.25,17.28,87.6
"2010-10-21 00:02:30",265266,3.293,122.2,1.009,0.077,16.75,106.7191,16.48,17.36,18.93,0,110.6,13.25,17.28,84.2
"2010-10-21 00:03:00",265267,3.227,120.1,1.271,0.079,16.89,106.7209,16.48,17.36,18.8,0,110.6,13.25,17.29,82.1
"2010-10-21 00:03:30",265268,3.267,123.8,1.363,0.068,16.87,106.723,16.49,17.34,18.8,0,110.6,13.25,17.29,85.8
"2010-10-21 00:04:00",265269,3.319,124.6,1.85,0.086,16.96,106.723,16.49,17.36,18.84,0,110.6,13.25,17.29,86.6
"2010-10-21 00:04:30",265270,3.141,126.3,1.561,0.09,17.08,106.723,16.49,17.35,18.96,0,110.6,13.25,17.29,88.3
"2010-10-21 00:05:00",265271,3.099,127.7,1.882,0.076,17.01,106.723,16.49,17.35,18.89,0,110.6,13.25,17.29,89.7
"2010-10-21 00:05:30",265272,2.899,126.3,1.269,0.054,16.97,106.723,16.49,17.35,18.75,0,110.6,13.25,17.29,88.3
"2010-10-21 00:06:00",265273,3.089,128.2,1.336,0.155,17.09,106.723,16.49,17.35,18.67,0,110.6,13.25,17.29,90.2
"2010-10-21 00:06:30",265274,3.08,124.2,1.502,0.068,17.1,106.723,16.49,17.36,18.64,0,110.6,13.25,17.29,86.2
"2010-10-21 00:07:00",265275,3.121,123.4,1.287,0.063,17.11,106.723,16.49,17.36,18.6,0,110.6,13.25,17.29,85.4
"2010-10-21 00:07:30",265276,3.234,124.5,1.262,0.062,17.07,106.723,16.49,17.35,18.55,0,110.6,13.25,17.29,86.5
"2010-10-21 00:08:00",265277,3.153,125.2,1.969,0.092,17.07,106.723,16.49,17.37,18.52,0,110.6,13.25,17.29,87.2
"2010-10-21 00:08:30",265278,3.119,126.8,1.624,0.057,17.16,106.723,16.49,17.36,18.5,0,110.6,13.25,17.29,88.8
"2010-10-21 00:09:00",265279,3.078,126,0.558,0.045,17.09,106.723,16.49,17.37,18.47,0,110.6,13.25,17.29,88.0
"2010-10-21 00:09:30",265280,3.005,125.1,0.541,0.064,17.14,106.723,16.49,17.36,18.43,0,110.6,13.25,17.29,87.1
"2010-10-21 00:10:00",265281,2.961,125.9,1.037,0.057,17.07,106.723,16.49,17.36,18.41,0,110.6,13.25,17.29,87.9
"2010-10-21 00:10:30",265282,2.966,129.9,1.314,0.042,17.07,106.723,16.49,17.37,18.38,0,110.6,13.25,17.29,91.9
"2010-10-21 00:11:00",265283,2.985,131,0.333,0.028,17.12,106.723,16.49,17.38,18.36,0,110.6,13.25,17.29,93.0
"2010-10-21 00:11:30",265284,2.932,129.4,1.119,0.035,17.02,106.723,16.49,17.38,18.37,0,110.6,13.25,17.29,91.4
"2010-10-21 00:12:00",265285,2.922,128.9,0.632,0.044,16.98,106.723,16.49,17.38,18.41,0,110.6,13.25,17.29,90.9
"2010-10-21 00:12:30",265286,2.88,127.9,1.038,0.038,16.99,106.723,16.49,17.38,18.41,0,110.6,13.26,17.29,89.9
"2010-10-21 00:13:00",265287,2.834,128.4,0.603,0.03,17,106.723,16.49,17.37,18.42,0,110.6,13.26,17.29,90.4
"2010-10-21 00:13:30",265288,2.89,127.6,1.536,0.052,17.02,106.7233,16.49,17.37,18.43,0,110.6,13.26,17.30,89.6
"2010-10-21 00:14:00",265289,2.845,130.2,1.044,0.07,17.07,106.7233,16.49,17.38,18.45,0,110.6,13.26,17.30,92.2
"2010-10-21 00:14:30",265290,2.89,127.7,2.444,0.068,17.05,106.7266,16.49,17.37,18.51,0,110.6,13.26,17.30,89.7
"2010-10-21 00:15:00",265291,2.856,125.4,3.204,0.107,17.16,106.7311,16.51,17.39,18.57,0,110.6,13.26,17.32,87.4
"2010-10-21 00:15:30",265292,2.807,128.4,2.038,0.067,17.08,106.7337,16.51,17.37,18.54,0,110.6,13.27,17.32,90.4
"2010-10-21 00:16:00",265293,2.78,126.6,1.266,0.064,17.1,106.7272,16.5,17.36,18.57,0,110.6,13.27,17.31,88.6
"2010-10-21 00:16:30",265294,2.865,126.9,1.491,0.082,17.06,106.7231,16.49,17.36,18.58,0,110.6,13.27,17.30,88.9
"2010-10-21 00:17:00",265295,3.068,123.7,1.99,0.073,17.17,106.7202,16.48,17.37,18.58,0,110.6,13.27,17.29,85.7
"2010-10-21 00:17:30",265296,3.24,121.3,1.71,0.057,17.07,106.7186,16.47,17.35,18.56,0,110.6,13.27,17.28,83.3
"2010-10-21 00:18:00",265297,3.156,122.1,1.684,0.078,17.17,106.7228,16.48,17.34,18.57,0,110.6,13.27,17.29,84.1
"2010-10-21 00:18:30",265298,3.244,123,0.845,0.078,17.06,106.7231,16.49,17.35,18.55,0,110.5,13.27,17.30,85.0
"2010-10-21 00:19:00",265299,3.401,123,0.823,0.087,17,106.7249,16.49,17.35,18.55,0,110.5,13.27,17.30,85.0
"2010-10-21 00:19:30",265300,3.422,124.4,0.654,0.03,17.04,106.7252,16.49,17.34,18.55,0,110.5,13.27,17.30,86.4
"2010-10-21 00:20:00",265301,3.537,125.6,0.698,0.057,17.1,106.7252,16.49,17.34,18.53,0,110.5,13.27,17.30,87.6
"2010-10-21 00:20:30",265302,3.583,126.9,0.561,0.036,17.06,106.7252,16.49,17.34,18.54,0,110.5,13.27,17.30,88.9
"2010-10-21 00:21:00",265303,3.608,126.9,0.515,0.033,17.08,106.7238,16.49,17.33,18.56,0,110.5,13.27,17.30,88.9
"2010-10-21 00:21:30",265304,3.637,127.8,0.586,0.047,17.05,106.7235,16.49,17.33,18.54,0,110.5,13.27,17.30,89.8
"2010-10-21 00:22:00",265305,3.508,127.1,0.645,0.035,17.1,106.7233,16.49,17.34,18.55,0,110.5,13.27,17.30,89.1
"2010-10-21 00:22:30",265306,3.525,126.5,0.692,0.039,17.08,106.7182,16.47,17.33,18.58,0,110.5,13.27,17.28,88.5
"2010-10-21 00:23:00",265307,3.507,126.4,0.747,0.051,17.03,106.7067,16.44,17.33,18.64,0,110.5,13.27,17.25,88.4
"2010-10-21 00:23:30",265308,3.581,126.5,0.515,0.038,17.04,106.6957,16.42,17.32,18.65,0,110.5,13.27,17.22,88.5
"2010-10-21 00:24:00",265309,3.577,128.3,0.636,0.04,17.06,106.6917,16.41,17.32,18.67,0,110.5,13.27,17.21,90.3
"2010-10-21 00:24:30",265310,3.591,128.4,0.821,0.048,17.08,106.6914,16.4,17.32,18.71,0,110.5,13.27,17.21,90.4
"2010-10-21 00:25:00",265311,3.552,130,0.741,0.039,17.1,106.6914,16.4,17.31,18.74,0,110.5,13.27,17.21,92.0
"2010-10-21 00:25:30",265312,3.637,129.9,0.674,0.086,17.02,106.6914,16.4,17.3,18.7,0,110.5,13.27,17.21,91.9
"2010-10-21 00:26:00",265313,3.824,128.9,0.85,0.048,17.03,106.6914,16.4,17.3,18.65,0,110.5,13.27,17.21,90.9
"2010-10-21 00:26:30",265314,3.791,129.4,0.899,0.074,17.01,106.6914,16.4,17.3,18.65,0,110.5,13.27,17.21,91.4
"2010-10-21 00:27:00",265315,3.72,129.8,0.844,0.061,17,106.6914,16.4,17.29,18.66,0,110.5,13.27,17.21,91.8
"2010-10-21 00:27:30",265316,3.757,130.1,0.913,0.077,16.99,106.6914,16.4,17.29,18.65,0,110.5,13.27,17.21,92.1
"2010-10-21 00:28:00",265317,3.365,129.7,1.247,0.079,17.22,106.6914,16.4,17.29,18.62,0,110.5,13.27,17.21,91.7
"2010-10-21 00:28:30",265318,3.544,129.4,0.678,0.102,17.13,106.6914,16.4,17.29,18.61,0,110.5,13.27,17.21,91.4
"2010-10-21 00:29:00",265319,3.614,130,0.932,0.039,17.04,106.6917,16.41,17.3,18.64,0,110.5,13.27,17.21,92.0
"2010-10-21 00:29:30",265320,3.587,127.1,1.38,0.048,17.07,106.6924,16.41,17.28,18.63,0,110.5,13.28,17.22,89.1
"2010-10-21 00:30:00",265321,3.532,124.3,1.565,0.065,17.09,106.6938,16.41,17.31,18.59,0,110.5,13.28,17.22,86.3
"2010-10-21 00:30:30",265322,3.451,122.9,1.383,0.076,17.04,106.6981,16.42,17.29,18.57,0,110.5,13.28,17.23,84.9
"2010-10-21 00:31:00",265323,3.285,123.8,2.026,0.061,17.11,106.7071,16.44,17.3,18.54,0,110.5,13.29,17.25,85.8
"2010-10-21 00:31:30",265324,3.387,120.6,0.705,0.065,17.13,106.7122,16.46,17.3,18.53,0,110.5,13.29,17.27,82.6
"2010-10-21 00:32:00",265325,3.303,120.4,0.838,0.039,17.14,106.7152,16.47,17.3,18.53,0,110.5,13.29,17.27,82.4
"2010-10-21 00:32:30",265326,3.153,121.3,0.896,0.065,17.23,106.7173,16.47,17.3,18.51,0,110.5,13.29,17.28,83.3
"2010-10-21 00:33:00",265327,3.095,124.8,0.493,0.051,17.2,106.7179,16.47,17.3,18.43,0,110.5,13.29,17.28,86.8
"2010-10-21 00:33:30",265328,3.233,124.9,0.494,0.053,17.13,106.7206,16.48,17.32,18.43,0,110.5,13.29,17.29,86.9
"2010-10-21 00:34:00",265329,3.26,126,0.688,0.054,17.17,106.7245,16.49,17.32,18.46,0,110.5,13.29,17.30,88.0
"2010-10-21 00:34:30",265330,3.322,124.9,0.6,0.102,17.12,106.726,16.49,17.32,18.43,0,110.5,13.29,17.30,86.9
"2010-10-21 00:35:00",265331,3.384,124.3,1.104,0.105,17.11,106.7269,16.5,17.35,18.37,0,110.5,13.29,17.30,86.3
"2010-10-21 00:35:30",265332,3.581,126.9,0.943,0.087,17.19,106.7266,16.49,17.32,18.29,0,110.5,13.29,17.30,88.9
"2010-10-21 00:36:00",265333,3.639,122.9,1.336,0.102,17.21,106.7275,16.5,17.34,18.35,0,110.5,13.29,17.31,84.9
"2010-10-21 00:36:30",265334,3.648,120.5,0.895,0.044,17.17,106.7275,16.5,17.36,18.34,0,110.5,13.29,17.31,82.5
"2010-10-21 00:37:00",265335,3.645,119.6,0.567,0.062,17.15,106.7275,16.5,17.35,18.07,0,110.5,13.29,17.31,81.6
"2010-10-21 00:37:30",265336,3.563,119.6,0.865,0.045,17.21,106.7275,16.5,17.37,17.82,0,110.5,13.29,17.31,81.6
"2010-10-21 00:38:00",265337,3.579,121.5,0.746,0.083,17.11,106.7275,16.5,17.37,17.76,0,110.5,13.29,17.31,83.5
"2010-10-21 00:38:30",265338,3.554,121.2,0.708,0.052,17.1,106.7275,16.5,17.36,17.79,0,110.5,13.29,17.31,83.2
"2010-10-21 00:39:00",265339,3.37,122.9,1.239,0.056,17.02,106.7275,16.5,17.36,17.84,0,110.5,13.29,17.31,84.9
"2010-10-21 00:39:30",265340,3.334,124.2,0.692,0.035,17,106.7275,16.5,17.36,18.1,0,110.5,13.29,17.31,86.2
"2010-10-21 00:40:00",265341,3.396,124,1.509,0.05,17.07,106.7275,16.5,17.37,18.09,0,110.5,13.29,17.31,86.0
"2010-10-21 00:40:30",265342,3.439,125.6,1.013,0.057,17.12,106.7275,16.5,17.37,18.12,0,110.5,13.29,17.31,87.6
"2010-10-21 00:41:00",265343,3.432,127.3,0.771,0.045,17.17,106.7275,16.5,17.37,18.26,0,110.5,13.29,17.31,89.3
"2010-10-21 00:41:30",265344,3.41,128.6,1.05,0.043,17.24,106.7275,16.5,17.36,18.28,0,110.5,13.29,17.31,90.6
"2010-10-21 00:42:00",265345,3.366,127.7,1.132,0.037,17.26,106.7275,16.5,17.37,18.13,0,110.5,13.29,17.31,89.7
"2010-10-21 00:42:30",265346,3.437,129.2,1.049,0.064,17.21,106.7247,16.49,17.36,18.18,0,110.5,13.29,17.30,91.2
"2010-10-21 00:43:00",265347,3.526,130.8,0.564,0.048,17.16,106.7143,16.46,17.36,18.38,0,110.5,13.29,17.27,92.8
"2010-10-21 00:43:30",265348,3.616,131,0.771,0.037,17.06,106.7036,16.44,17.35,18.44,0,110.5,13.29,17.24,93.0
"2010-10-21 00:44:00",265349,3.67,131.8,0.603,0.082,17.14,106.6948,16.41,17.36,18.44,0,110.5,13.29,17.22,93.8
"2010-10-21 00:44:30",265350,3.737,131.8,0.69,0.028,17.07,106.6937,16.41,17.33,18.46,0,110.5,13.29,17.22,93.8
"2010-10-21 00:45:00",265351,3.85,131.5,0.669,0.062,17.08,106.6937,16.41,17.33,18.43,0,110.5,13.29,17.22,93.5
"2010-10-21 00:45:30",265352,3.863,132.4,0.649,0.041,17.05,106.6937,16.41,17.33,18.44,0,110.5,13.29,17.22,94.4
"2010-10-21 00:46:00",265353,3.848,132.6,0.328,0.053,17.04,106.6937,16.41,17.31,18.48,0,110.5,13.29,17.22,94.6
"2010-10-21 00:46:30",265354,3.806,133.7,0.851,0.044,17.13,106.6937,16.41,17.32,18.44,0,110.5,13.29,17.22,95.7
"2010-10-21 00:47:00",265355,3.856,134,0.498,0.046,17.14,106.6934,16.41,17.31,18.43,0,110.5,13.3,17.22,96.0
"2010-10-21 00:47:30",265356,3.929,133.4,0.913,0.035,17.04,106.6884,16.4,17.3,18.47,0,110.5,13.3,17.21,95.4
"2010-10-21 00:48:00",265357,3.873,133.5,0.563,0.024,17.09,106.6858,16.39,17.29,18.45,0,110.5,13.3,17.20,95.5
"2010-10-21 00:48:30",265358,3.978,131.4,0.863,0.054,17.08,106.6841,16.39,17.29,18.47,0,110.5,13.3,17.19,93.4
"2010-10-21 00:49:00",265359,3.957,132.3,0.61,0.053,17.05,106.678,16.37,17.29,18.51,0,110.5,13.3,17.18,94.3
"2010-10-21 00:49:30",265360,3.979,131.6,0.52,0.049,17.04,106.6712,16.35,17.28,18.48,0,110.5,13.3,17.16,93.6
"2010-10-21 00:50:00",265361,3.96,130.7,1.054,0.061,17.1,106.6635,16.33,17.27,18.44,0,110.5,13.3,17.14,92.7
"2010-10-21 00:50:30",265362,3.976,131.4,0.611,0.04,17.06,106.6629,16.33,17.26,18.45,0,110.5,13.3,17.14,93.4
"2010-10-21 00:51:00",265363,3.94,131.8,0.656,0.045,17.06,106.6629,16.33,17.27,18.39,0,110.5,13.3,17.14,93.8
"2010-10-21 00:51:30",265364,3.903,131.3,0.383,0.043,17.06,106.6647,16.34,17.27,18.38,0,110.5,13.3,17.14,93.3
"2010-10-21 00:52:00",265365,3.902,131.8,0.583,0.073,17.06,106.6665,16.34,17.27,18.34,0,110.5,13.3,17.15,93.8
"2010-10-21 00:52:30",265366,3.861,130.9,0.301,0.039,17.05,106.6677,16.34,17.26,18.3,0,110.5,13.3,17.15,92.9
"2010-10-21 00:53:00",265367,3.877,129.6,0.575,0.044,17.07,106.6719,16.35,17.27,18.31,0,110.5,13.3,17.16,91.6
"2010-10-21 00:53:30",265368,3.888,128.6,0.444,0.028,17.11,106.6743,16.36,17.26,18.29,0,110.5,13.3,17.17,90.6
"2010-10-21 00:54:00",265369,3.913,129,0.513,0.034,17.13,106.6758,16.36,17.27,18.21,0,110.5,13.3,17.17,91.0
"2010-10-21 00:54:30",265370,3.855,129.6,0.265,0.028,17.05,106.6821,16.38,17.26,18.15,0,110.5,13.3,17.19,91.6
"2010-10-21 00:55:00",265371,3.879,130,0.546,0.048,17.04,106.6824,16.38,17.26,18.14,0,110.5,13.3,17.19,92.0
"2010-10-21 00:55:30",265372,3.958,128.5,0.881,0.06,17.15,106.684,16.39,17.27,18.07,0,110.5,13.3,17.19,90.5
"2010-10-21 00:56:00",265373,3.88,128,0.478,0.047,17.11,106.6854,16.39,17.27,18.04,0,110.5,13.3,17.20,90.0
"2010-10-21 00:56:30",265374,3.92,127.4,0.821,0.056,17.17,106.687,16.39,17.26,17.96,0,110.5,13.3,17.20,89.4
"2010-10-21 00:57:00",265375,3.889,125.2,1.396,0.046,17.17,106.6876,16.39,17.26,17.87,0,110.5,13.3,17.20,87.2
"2010-10-21 00:57:30",265376,3.851,124.1,0.453,0.036,17.21,106.6882,16.4,17.27,17.79,0,110.5,13.3,17.21,86.1
"2010-10-21 00:58:00",265377,3.823,125.1,0.534,0.027,17.22,106.6921,16.41,17.28,17.77,0,110.5,13.3,17.22,87.1
"2010-10-21 00:58:30",265378,3.985,126.2,0.586,0.1,17.14,106.6927,16.41,17.28,17.7,0,110.5,13.3,17.22,88.2
"2010-10-21 00:59:00",265379,4.084,124.7,0.492,0.028,17.05,106.6951,16.41,17.27,17.72,0,110.5,13.3,17.22,86.7
"2010-10-21 00:59:30",265380,4.073,125.1,0.36,0.045,17.03,106.6942,16.41,17.27,17.73,0,110.5,13.29,17.22,87.1
"2010-10-21 01:00:00",265381,4.04,124.7,0.437,0.043,17.06,106.6957,16.42,17.27,17.74,0,110.5,13.3,17.22,86.7
"2010-10-21 01:00:30",265382,4.01,124.3,0.673,0.031,17.07,106.696,16.42,17.29,17.73,0,110.5,13.3,17.23,86.3
"2010-10-21 01:01:00",265383,4.035,124.5,0.486,0.069,17.07,106.6957,16.42,17.28,17.72,0,110.5,13.3,17.22,86.5
"2010-10-21 01:01:30",265384,4.119,125.2,0.521,0.03,17.02,106.696,16.42,17.26,17.75,0,110.5,13.3,17.23,87.2
"2010-10-21 01:02:00",265385,4.116,127.2,1.097,0.063,17.05,106.6957,16.42,17.26,17.76,0,110.5,13.3,17.22,89.2
"2010-10-21 01:02:30",265386,4.029,127.5,1.382,0.068,17.11,106.6948,16.41,17.26,17.75,0,110.5,13.31,17.22,89.5
"2010-10-21 01:03:00",265387,4.112,128.6,0.759,0.058,17.09,106.692,16.41,17.25,17.75,0,110.5,13.31,17.22,90.6
"2010-10-21 01:03:30",265388,4.095,129.5,0.692,0.064,17.09,106.6884,16.4,17.25,17.76,0,110.5,13.31,17.21,91.5
"2010-10-21 01:04:00",265389,4.071,129.2,0.661,0.082,17.12,106.6827,16.38,17.26,17.76,0,110.5,13.31,17.19,91.2
"2010-10-21 01:04:30",265390,4.098,129.9,0.549,0.042,17.09,106.6746,16.36,17.25,17.75,0,110.5,13.31,17.17,91.9
"2010-10-21 01:05:00",265391,4.072,131.5,1.13,0.075,17.04,106.6675,16.34,17.24,17.76,0,110.5,13.31,17.15,93.5
"2010-10-21 01:05:30",265392,4.254,133.5,0.372,0.035,17.1,106.6624,16.33,17.24,17.73,0,110.5,13.31,17.14,95.5
"2010-10-21 01:06:00",265393,4.187,133.3,0.562,0.029,17.08,106.6621,16.33,17.23,17.73,0,110.5,13.31,17.14,95.3
"2010-10-21 01:06:30",265394,4.233,134.6,0.638,0.037,17.06,106.6621,16.33,17.24,17.72,0,110.5,13.31,17.14,96.6
"2010-10-21 01:07:00",265395,4.257,135.7,0.781,0.036,16.99,106.6621,16.33,17.22,17.75,0,110.5,13.31,17.14,97.7
"2010-10-21 01:07:30",265396,4.284,137.8,0.672,0.024,17.04,106.6621,16.33,17.22,17.76,0,110.5,13.31,17.14,99.8
"2010-10-21 01:08:00",265397,4.35,138.5,0.505,0.048,17.07,106.6621,16.33,17.23,17.77,0,110.5,13.31,17.14,100.5
"2010-10-21 01:08:30",265398,4.271,138.5,1.234,0.045,17.07,106.6621,16.33,17.22,17.76,0,110.5,13.31,17.14,100.5
"2010-10-21 01:09:00",265399,4.183,138.2,0.795,0.044,17.07,106.6621,16.33,17.24,17.74,0,110.5,13.31,17.14,100.2
"2010-10-21 01:09:30",265400,4.151,140.8,0.958,0.047,17.08,106.6621,16.33,17.22,17.74,0,110.5,13.31,17.14,102.8
"2010-10-21 01:10:00",265401,4.209,141.3,0.763,0.048,17.1,106.6621,16.33,17.23,17.72,0,110.5,13.31,17.14,103.3
"2010-10-21 01:10:30",265402,4.277,143,0.563,0.019,17.04,106.6621,16.33,17.22,17.63,0,110.5,13.31,17.14,105.0
"2010-10-21 01:11:00",265403,4.294,143.2,0.486,0.028,17.09,106.6621,16.33,17.22,17.69,0,110.5,13.31,17.14,105.2
"2010-10-21 01:11:30",265404,4.294,143.7,0.759,0.034,17.08,106.6621,16.33,17.24,17.69,0,110.5,13.32,17.14,105.7
"2010-10-21 01:12:00",265405,4.289,144.9,0.524,0.023,17.07,106.6621,16.33,17.23,17.69,0,110.5,13.32,17.14,106.9
"2010-10-21 01:12:30",265406,4.402,145.2,0.489,0.053,16.92,106.6621,16.33,17.22,17.77,0,110.5,13.32,17.14,107.2
"2010-10-21 01:13:00",265407,4.413,145.5,0.427,0.026,16.92,106.6621,16.33,17.22,17.87,0,110.5,13.32,17.14,107.5
"2010-10-21 01:13:30",265408,4.358,145.3,0.515,0.041,16.93,106.6621,16.33,17.23,17.86,0,110.5,13.32,17.14,107.3
"2010-10-21 01:14:00",265409,4.33,144.4,0.408,0.036,17.01,106.6621,16.33,17.22,17.95,0,110.5,13.32,17.14,106.4
"2010-10-21 01:14:30",265410,4.36,143.5,0.476,0.013,17.02,106.6621,16.33,17.21,18,0,110.5,13.31,17.14,105.5
"2010-10-21 01:15:00",265411,4.459,142.2,0.586,0.037,17.02,106.6621,16.33,17.21,18,0,110.5,13.31,17.14,104.2
"2010-10-21 01:15:30",265412,4.528,141.3,0.517,0.034,16.97,106.6621,16.33,17.21,17.97,0,110.5,13.31,17.14,103.3
"2010-10-21 01:16:00",265413,4.581,140.7,0.381,0.052,16.92,106.6582,16.32,17.21,17.92,0,110.5,13.31,17.13,102.7
"2010-10-21 01:16:30",265414,4.59,141.1,0.499,0.036,16.9,106.6492,16.3,17.2,17.9,0,110.5,13.31,17.11,103.1
"2010-10-21 01:17:00",265415,4.613,141,0.459,0.03,16.89,106.6413,16.28,17.18,17.82,0,110.5,13.31,17.08,103.0
"2010-10-21 01:17:30",265416,4.564,140.7,0.028,0.013,16.94,106.6311,16.25,17.17,17.77,0,110.5,13.31,17.06,102.7
"2010-10-21 01:18:00",265417,4.557,140.7,0.028,0.004,16.93,106.6283,16.24,17.17,17.76,0,110.5,13.31,17.05,102.7
"2010-10-21 01:18:30",265418,4.576,140.7,0.024,0.027,16.94,106.6283,16.24,17.17,17.72,0,110.5,13.31,17.05,102.7
"2010-10-21 01:19:00",265419,4.603,141.2,0.749,0.056,16.92,106.6283,16.24,17.15,17.86,0,110.5,13.31,17.05,103.2
"2010-10-21 01:19:30",265420,4.659,141.4,0.682,0.059,16.86,106.6283,16.24,17.15,18.05,0,110.5,13.31,17.05,103.4
"2010-10-21 01:20:00",265421,4.635,140.8,0.36,0.042,16.87,106.6283,16.24,17.15,18.12,0,110.5,13.32,17.05,102.8
"2010-10-21 01:20:30",265422,4.607,140.7,0.337,0.042,16.91,106.6283,16.24,17.14,18.09,0,110.5,13.32,17.05,102.7
"2010-10-21 01:21:00",265423,4.646,140.5,0.654,0.03,16.9,106.6283,16.24,17.15,18.14,0,110.5,13.32,17.05,102.5
"2010-10-21 01:21:30",265424,4.73,140,0.55,0.067,16.91,106.6286,16.24,17.15,18.33,0,110.5,13.32,17.05,102.0
"2010-10-21 01:22:00",265425,4.785,139.8,0.318,0.032,16.91,106.6286,16.24,17.13,18.58,0,110.5,13.32,17.05,101.8
"2010-10-21 01:22:30",265426,4.756,138.9,0.504,0.035,16.88,106.6283,16.24,17.14,18.59,0,110.5,13.32,17.05,100.9
"2010-10-21 01:23:00",265427,4.748,139.4,0.47,0.029,16.89,106.6264,16.24,17.11,18.59,0,110.5,13.32,17.05,101.4
"2010-10-21 01:23:30",265428,4.709,139.5,0.318,0.052,16.88,106.6216,16.23,17.13,18.56,0,110.5,13.32,17.03,101.5
"2010-10-21 01:24:00",265429,4.654,139.5,0.312,0.031,16.9,106.6193,16.22,17.12,18.61,0,110.5,13.32,17.03,101.5
"2010-10-21 01:24:30",265430,4.633,138.6,0.188,0.017,16.93,106.6123,16.2,17.12,18.65,0,110.5,13.32,17.01,100.6
"2010-10-21 01:25:00",265431,4.679,138.6,0.028,0.021,16.92,106.6047,16.18,17.11,18.66,0,110.5,13.32,16.99,100.6
"2010-10-21 01:25:30",265432,4.782,138.7,0.453,0.071,16.86,106.6036,16.18,17.1,18.65,0,110.5,13.32,16.99,100.7
"2010-10-21 01:26:00",265433,4.861,138.7,0.532,0.05,16.82,106.5999,16.17,17.1,18.57,0,110.5,13.32,16.98,100.7
"2010-10-21 01:26:30",265434,4.953,138.1,0.652,0.039,16.82,106.5971,16.16,17.11,18.57,0,110.5,13.32,16.97,100.1
"2010-10-21 01:27:00",265435,5.002,136.7,0.89,0.102,16.84,106.5963,16.16,17.09,18.58,0,110.5,13.32,16.97,98.7
"2010-10-21 01:27:30",265436,5.157,134.9,0.68,0.05,16.87,106.5975,16.16,17.1,18.59,0,110.5,13.32,16.97,96.9
"2010-10-21 01:28:00",265437,5.141,134.5,0.378,0.045,16.88,106.5981,16.17,17.08,18.6,0,110.5,13.32,16.97,96.5
"2010-10-21 01:28:30",265438,5.181,133.6,0.264,0.043,16.88,106.5981,16.17,17.09,18.6,0,110.5,13.32,16.97,95.6
"2010-10-21 01:29:00",265439,5.166,133.4,0.66,0.061,16.91,106.5963,16.16,17.08,18.6,0,110.5,13.32,16.97,95.4
"2010-10-21 01:29:30",265440,5.28,133.7,0.634,0.037,16.87,106.5972,16.16,17.07,18.61,0,110.4,13.32,16.97,95.7
"2010-10-21 01:30:00",265441,5.263,134.1,0.678,0.032,16.86,106.5987,16.17,17.07,18.64,0,110.5,13.32,16.98,96.1
"2010-10-21 01:30:30",265442,5.246,134.3,0.696,0.028,16.82,106.6002,16.17,17.07,18.64,0,110.5,13.32,16.98,96.3
"2010-10-21 01:31:00",265443,5.249,134.4,0.652,0.038,16.84,106.5993,16.17,17.07,18.64,0,110.5,13.32,16.98,96.4
"2010-10-21 01:31:30",265444,5.251,135.2,0.842,0.069,16.84,106.5999,16.17,17.04,18.65,0,110.4,13.32,16.98,97.2
"2010-10-21 01:32:00",265445,5.198,135.6,0.766,0.049,16.88,106.6011,16.17,17.05,18.63,0,110.4,13.32,16.98,97.6
"2010-10-21 01:32:30",265446,5.113,135.7,0.527,0.047,16.9,106.6008,16.17,17.06,18.64,0,110.4,13.32,16.98,97.7
"2010-10-21 01:33:00",265447,5.116,135,0.627,0.057,16.91,106.6023,16.18,17.05,18.73,0,110.4,13.32,16.98,97.0
"2010-10-21 01:33:30",265448,5.061,135.2,0.551,0.036,16.89,106.6042,16.18,17.04,18.71,0,110.4,13.32,16.99,97.2
"2010-10-21 01:34:00",265449,5.068,135.6,0.468,0.033,16.9,106.6023,16.18,17.04,18.71,0,110.4,13.32,16.98,97.6
"2010-10-21 01:34:30",265450,5.106,133.9,0.721,0.025,16.97,106.5986,16.17,17.05,18.83,0,110.4,13.32,16.97,95.9
"2010-10-21 01:35:00",265451,5.073,133.7,0.366,0.033,16.99,106.6046,16.18,17.05,18.89,0,110.4,13.32,16.99,95.7
"2010-10-21 01:35:30",265452,5.028,133.7,0.26,0.027,17.11,106.6055,16.18,17.04,18.62,0,110.4,13.32,16.99,95.7
"2010-10-21 01:36:00",265453,4.961,134.3,0.54,0.038,17.09,106.6102,16.2,17.05,18.5,0,110.4,13.32,17.00,96.3
"2010-10-21 01:36:30",265454,4.948,134,0.49,0.037,17.1,106.6089,16.19,17.06,18.48,0,110.4,13.32,17.00,96.0
"2010-10-21 01:37:00",265455,4.918,133.7,0.302,0.036,17.11,106.6134,16.2,17.07,18.45,0,110.4,13.32,17.01,95.7
"2010-10-21 01:37:30",265456,4.896,133.3,0.482,0.017,17.07,106.6143,16.21,17.06,18.43,0,110.4,13.32,17.02,95.3
"2010-10-21 01:38:00",265457,4.847,132.5,0.383,0.034,16.98,106.6146,16.21,17.08,18.59,0,110.5,13.32,17.02,94.5
"2010-10-21 01:38:30",265458,4.744,133.6,0.803,0.035,16.95,106.6146,16.21,17.09,18.7,0,110.4,13.33,17.02,95.6
"2010-10-21 01:39:00",265459,4.669,136,0.559,0.029,17.1,106.6152,16.21,17.07,18.55,0,110.4,13.33,17.02,98.0
"2010-10-21 01:39:30",265460,4.606,137.2,0.359,0.033,17.16,106.6168,16.21,17.08,18.49,0,110.4,13.32,17.02,99.2
"2010-10-21 01:40:00",265461,4.629,136.7,0.709,0.033,17.12,106.6177,16.22,17.08,18.47,0,110.4,13.33,17.02,98.7
"2010-10-21 01:40:30",265462,4.685,136.8,0.472,0.043,17.09,106.6192,16.22,17.08,18.48,0,110.4,13.33,17.03,98.8
"2010-10-21 01:41:00",265463,4.712,136.9,0.341,0.031,17.05,106.6192,16.22,17.08,18.43,0,110.4,13.33,17.03,98.9
"2010-10-21 01:41:30",265464,4.69,137.4,0.575,0.02,16.98,106.6207,16.22,17.08,18.42,0,110.4,13.33,17.03,99.4
"2010-10-21 01:42:00",265465,4.664,138.2,0.507,0.031,16.95,106.6204,16.22,17.07,18.43,0,110.4,13.33,17.03,100.2
"2010-10-21 01:42:30",265466,4.665,138.7,0.62,0.027,16.92,106.6201,16.22,17.08,18.45,0,110.4,13.33,17.03,100.7
"2010-10-21 01:43:00",265467,4.642,139.6,0.191,0.028,16.89,106.621,16.22,17.09,18.56,0,110.4,13.33,17.03,101.6
"2010-10-21 01:43:30",265468,4.683,140.3,0.502,0.019,16.88,106.6204,16.22,17.09,18.64,0,110.4,13.33,17.03,102.3
"2010-10-21 01:44:00",265469,4.703,140.7,0.034,0.036,16.83,106.6222,16.23,17.06,18.72,0,110.4,13.33,17.04,102.7
"2010-10-21 01:44:30",265470,4.753,140.8,0.32,0,16.82,106.6204,16.22,17.08,18.88,0,110.4,13.33,17.03,102.8
"2010-10-21 01:45:00",265471,4.812,140.7,0.034,0.03,16.83,106.6243,16.23,17.07,18.95,0,110.4,13.33,17.04,102.7
"2010-10-21 01:45:30",265472,4.849,141.1,0.529,0.028,16.95,106.6213,16.22,17.06,18.98,0,110.4,13.33,17.03,103.1
"2010-10-21 01:46:00",265473,4.841,141.3,0.523,0.024,16.92,106.6204,16.22,17.08,18.99,0,110.4,13.33,17.03,103.3
"2010-10-21 01:46:30",265474,4.89,140.8,0.361,0.019,16.98,106.6139,16.21,17.08,19,0,110.4,13.33,17.01,102.8
"2010-10-21 01:47:00",265475,4.874,141,0.488,0.029,16.96,106.6068,16.19,17.05,18.99,0,110.4,13.33,17.00,103.0
"2010-10-21 01:47:30",265476,4.878,141.7,0.187,0.037,17.02,106.598,16.16,17.06,19.05,0,110.4,13.32,16.97,103.7
"2010-10-21 01:48:00",265477,4.9,141.5,0.416,0.027,17.04,106.5918,16.15,17.06,19.1,0,110.4,13.32,16.96,103.5
"2010-10-21 01:48:30",265478,4.914,140.7,0.02,0.033,17.01,106.5916,16.15,17.04,19.07,0,110.4,13.32,16.96,102.7